Hourly Data Report for October 19, 2015

All times are specified in Local Standard Time (LST). Add 1 hour to adjust for Daylight Saving Time where and when it is observed.

BAKER LAKE A
NUNAVUT

64°17'56.000" N
96°04'40.000" W
18.60 m
2300503
71926
YBK

Download Data

Hourly Data (October 2015)
Hourly Data Report for October 19, 2015
Temp Definition
°C
Dew Point Temp Definition
°C
Rel Hum Definition
%
Wind Dir Definition
10's deg

Wind Spd Definition
km/h
Visibility Definition
km
Stn Press Definition
kPa
Hmdx Definition


Wind Chill Definition


Weather Definition


TIME
00:00 Legend Double Dagger -8.7 -10.6 86 35 54 4.8 100.13   -20 Snow,Blowing Snow
01:00 Legend Double Dagger -9.0 -11.1 85 34 49 8.1 100.19   -20 Snow,Blowing Snow
02:00 Legend Double Dagger -9.0 -11.1 85 35 46 24.1 100.26   -20 Snow,Blowing Snow
03:00 Legend Double Dagger -9.9 -12.0 85 35 48 24.1 100.31   -21 Snow,Blowing Snow
04:00 Legend Double Dagger -10.2 -12.4 84 34 53 24.1 100.39   -22 Snow,Blowing Snow
05:00 Legend Double Dagger -9.8 -12.2 83 35 52 24.1 100.47   -22 Snow,Blowing Snow
06:00 Legend Double Dagger -9.4 -11.9 82 35 55 24.1 100.57   -21 Mostly Cloudy
07:00 Legend Double Dagger -9.9 -12.7 80 36 54 24.1 100.72   -22 Blowing Snow
08:00 Legend Double Dagger -9.2 -13.0 74 36 54 24.1 100.88   -21 Blowing Snow
09:00 Legend Double Dagger -10.1 -14.2 72 35 44 24.1 101.02   -21 Blowing Snow
10:00 Legend Double Dagger -9.9 -14.0 72 35 47 24.1 101.14   -21 LegendNANA
11:00 Legend Double Dagger -8.5 -13.4 68 36 44 24.1 101.27   -19 LegendNANA
12:00 Legend Double Dagger -8.7 -12.5 74 34 39 24.1 101.36   -19 Mainly Clear
13:00 Legend Double Dagger -7.9 -12.8 68 34 38 24.1 101.41   -18 LegendNANA
14:00 Legend Double Dagger -8.3 -12.3 73 33 43 32.2 101.49   -19 LegendNANA
15:00 Legend Double Dagger -8.3 -12.2 74 33 35 32.2 101.60   -18 Mostly Cloudy
16:00 Legend Double Dagger -8.5 -12.0 76 33 36 32.2 101.67   -18 LegendNANA
17:00 Legend Double Dagger -9.1 -12.4 77 32 34 32.2 101.74   -19 LegendNANA
18:00 Legend Double Dagger -9.1 -12.6 76 32 32 24.1 101.79   -19 Mostly Cloudy
19:00 Legend Double Dagger -9.3 -13.0 75 32 29 24.1 101.81   -18 LegendNANA
20:00 Legend Double Dagger -9.7 -13.0 77 31 28 24.1 101.83   -19 LegendNANA
21:00 Legend Double Dagger -9.7 -13.0 77 33 26 24.1 101.88   -19 Cloudy
22:00 Legend Double Dagger -10.0 -13.6 75 33 25 24.1 101.92   -19 LegendNANA
23:00 Legend Double Dagger -10.4 -14.2 74 32 24 24.1 101.98   -19 LegendNANA

Notes on Data Quality.

Legend

  • E = Estimated
  • M = Missing
  • NA = Not Available
  • ‡ = Partner data that is not subject to review by the National Climate Archives
Date modified: